Weather observations for the past three days for
Lafayette, Purdue University Airport
Imperial (Metric)
Date Time (edt) Wind (mph) Vis. (mi.) Weather Sky Cond. Temperature (ºF) Relative Humidity Wind Chill (°F) Heat Index (°F) Pressure Precipitation (in)
Air Dwpt 6 hour altimeter (in) sea level (mb) 1 hr 3 hr 6 hr
Max. Min.
18 17:54 S 12 G 20 10.00 Fair CLR 84.9 71.1 63% 90 30.08 1017.9
18 16:54 S 10 G 17 10.00 Fair CLR 86 71.1 61% 92 30.07 1017.8
18 15:54 S 10 G 21 10.00 A Few Clouds FEW039 FEW110 86 71.1 61% 92 30.08 1018.1
18 14:54 SW 9 G 20 10.00 A Few Clouds FEW037 88 70 55% 93 30.08 1018.2
18 13:54 S 12 G 24 10.00 Partly Cloudy SCT036 87.1 70 88 73 57% 92 30.09 1018.3
18 12:54 S 14 G 24 10.00 Fair CLR 86 71.1 61% 92 30.09 1018.4
18 11:54 S 8 10.00 Mostly Cloudy BKN090 BKN120 82 70 67% 86 30.1 1018.7
18 10:54 S 8 10.00 Mostly Cloudy SCT080 BKN095 BKN110 79 69.1 72% 82 30.1 1018.6
18 09:54 Vrbl 6 G 17 10.00 Overcast BKN050 BKN060 OVC080 75.9 69.1 79% 77 30.11 1018.8
18 08:54 Calm 10.00 Mostly Cloudy BKN080 BKN110 73.9 69.1 85% 30.09 1018.3
18 07:54 S 6 10.00 Light Rain FEW100 SCT120 73 68 78.1 73 84% 30.08 1017.9
18 06:54 S 7 10.00 Partly Cloudy SCT080 73.9 66.9 79% 30.05 1017.1
18 05:54 S 7 10.00 Light Rain CLR 73.9 66 76% 30.04 1016.5
18 04:54 S 3 10.00 Mostly Cloudy BKN120 75.9 64.9 69% 78 30.02 1016.0
18 03:54 SE 5 10.00 A Few Clouds FEW110 77 66 69% 79 30.02 1015.7
18 02:54 S 3 10.00 Fair CLR 77 66.9 71% 79 30.02 1015.9
18 01:54 Vrbl 5 10.00 Fair CLR 78.1 66 89.1 78.1 67% 80 30.02 1015.9
18 00:54 S 6 10.00 Fair CLR 80.1 66 62% 82 30.02 1015.8
17 23:54 S 9 G 18 10.00 Fair CLR 82 66 58% 84 30 1015.2
17 22:54 S 7 G 18 10.00 Fair CLR 84 69.1 61% 88 29.99 1014.9
17 21:54 Vrbl 6 10.00 Fair CLR 84.9 69.1 59% 89 29.97 1014.2
17 20:54 Vrbl 7 10.00 Fair CLR 87.1 69.1 55% 91 29.95 1013.5
17 19:54 S 6 10.00 Fair CLR 89.1 70 95 89.1 53% 94 29.94 1013.3
17 18:54 S 13 G 26 10.00 Fair CLR 91 69.1 49% 96 29.94 1013.3
17 17:54 SW 8 G 21 10.00 Fair CLR 93 68 44% 97 29.94 1013.2
17 16:54 S 10 G 21 10.00 A Few Clouds FEW055 93 70 47% 99 29.96 1013.9
17 15:54 S 8 10.00 Partly Cloudy SCT055 SCT070 91.9 70 49% 98 29.97 1014.2
17 14:54 SW 12 G 17 10.00 Fair CLR 95 70 44% 101 29.97 1014.2
17 13:54 S 9 G 18 10.00 Partly Cloudy FEW050 SCT060 93 70 93.9 77 47% 99 30 1015.0
17 12:54 S 13 G 21 10.00 Fair CLR 91.9 70 49% 98 30.01 1015.4
17 11:54 S 8 G 18 10.00 Fair CLR 90 73 58% 98 30.02 1016.0
17 10:54 SW 8 10.00 Fair CLR 87.1 73 63% 95 30.03 1016.3
17 09:54 SW 6 10.00 Fair CLR 84.9 73.9 70% 92 30.04 1016.4
17 08:54 Vrbl 7 10.00 Fair CLR 81 72 74% 85 30.02 1016.1
17 07:54 SW 3 9.00 Fair CLR 77 71.1 79 71.1 82% 79 30.01 1015.4
17 06:54 Calm 9.00 Fair CLR 73.9 69.1 85% 29.98 1014.5
17 05:54 Calm 9.00 Fair CLR 71.1 68 90% 29.96 1014.0
17 04:54 Calm 10.00 Fair CLR 72 69.1 91% 29.96 1014.0
17 03:54 Calm 10.00 Fair CLR 75 69.1 82% 75 29.96 1013.8
17 02:54 Calm 10.00 Fair CLR 75.9 69.1 79% 77 29.96 1013.8
17 01:54 Calm 10.00 Fair CLR 79 69.1 89.1 79 72% 82 29.95 1013.6
17 00:54 S 6 10.00 Fair CLR 81 69.1 67% 84 29.95 1013.4
16 23:54 Vrbl 6 10.00 Fair CLR 82.9 69.1 63% 87 29.94 1013.4
16 22:54 S 9 10.00 Fair CLR 82.9 69.1 63% 87 29.93 1012.7
16 21:54 S 7 10.00 Fair CLR 84.9 69.1 59% 89 29.91 1012.0
16 19:54 S 7 10.00 Fair CLR 89.1 69.1 91.9 88 52% 94 29.88 1011.4
16 18:54 S 7 10.00 A Few Clouds FEW065 91 68 47% 95 29.89 1011.7
16 17:54 S 12 G 22 10.00 A Few Clouds FEW060 91 68 47% 95 29.89 1011.7
16 16:54 S 12 G 24 10.00 Fair CLR 91 66.9 45% 94 29.89 1011.8
16 15:54 S 10 G 22 10.00 A Few Clouds FEW050 91 68 47% 95 29.92 1012.4
16 14:54 S 8 10.00 Fair CLR 91 69.1 49% 96 29.93 1013.1
16 13:54 S 9 10.00 Fair CLR 88 66 88 69.1 48% 90 29.96 1014.0
16 12:54 S 8 G 17 10.00 Fair CLR 87.1 64.9 48% 89 29.98 1014.5
16 11:54 SE 9 10.00 Mostly Cloudy SCT049 BKN065 82.9 61 48% 83 29.99 1015.0
16 10:54 SE 7 10.00 Fair CLR 81 59 47% 81 30 1015.3
16 09:54 Vrbl 6 10.00 A Few Clouds FEW070 75.9 55.9 50% 78 30.02 1015.9
16 08:54 SE 7 10.00 Partly Cloudy SCT065 72 53.1 52% 30.02 1016.0
16 07:54 SE 8 10.00 Fair CLR 69.1 52 69.1 64.9 55% 30.02 1016.0
16 06:54 Calm 10.00 Fair CLR 66.9 51.1 57% 30.02 1015.9
16 05:54 Vrbl 5 10.00 Fair CLR 66 50 56% 30 1015.5
16 04:54 SE 5 10.00 Fair CLR 66.9 50 55% 30 1015.5
16 03:54 SE 3 10.00 Fair CLR 68 50 53% 30.01 1015.6
16 02:54 SE 3 10.00 Fair CLR 66.9 51.1 57% 30.01 1015.8
16 01:54 E 5 10.00 Fair CLR 64.9 51.1 81 64.9 61% 30.03 1016.4
16 00:54 SE 3 10.00 Fair CLR 66.9 52 59% 30.03 1016.4
15 23:54 SE 3 10.00 Fair CLR 70 51.1 51% 30.02 1016.2
15 22:54 SE 6 10.00 Fair CLR 72 51.1 48% 30.02 1016.0
15 21:54 SE 6 10.00 Fair CLR 75 51.1 43% 78 30.01 1015.7
15 20:54 SE 5 10.00 Fair CLR 75.9 54 47% 78 30.01 1015.9
15 19:54 S 5 10.00 Fair CLR 81 53.1 84.9 81 38% 80 30.04 1016.6
15 18:54 SE 6 10.00 Fair CLR 82.9 51.1 33% 81 30.04 1016.9
Date Time (edt) Wind (mph) Vis. (mi.) Weather Sky Cond. Air Dwpt Max. Min. Relative Humidity Wind Chill (°F) Heat Index (°F) altimeter (in) sea level (mb) 1 hr 3 hr 6 hr
6 hour
Temperature (ºF) Pressure Precipitation (in)